N4MRV-1 Weather Reports


time (UTC)temp
C
wind
direction
speed
KPH
gust
KPH
rain 1hr
cm
rain 24hr
cm
rain mn
cm
humidity
%
barometer
mb
20260509134517 17 180 1.6 8.0 0.00 0.00 0.00 73 1012.9
20260509133017 16 113 1.6 4.8 0.00 0.00 0.00 78 1013.2
20260509131517 15 45 1.6 4.8 0.00 0.00 0.00 79 1013.3
20260509130037 15 0 1.6 3.2 0.00 0.00 0.00 82 1013.1
20260509124517 14 0.0 6.4 0.00 0.00 0.00 84 1013.1
20260509123017 13 0.0 3.2 0.00 0.00 0.00 85 1013.2
20260509121536 13 0.0 4.8 0.00 0.00 0.00 85 1013.4
20260509120017 12 0.0 6.4 0.00 0.00 0.00 86 1013.3
20260509114537 12 0 1.6 6.4 0.00 0.00 0.00 87 1013.1
20260509113017 11 0.0 3.2 0.00 0.00 0.00 87 1013.1
20260509111517 11 0 1.6 9.7 0.00 0.00 0.00 87 1013.1
20260509110017 11 0.0 4.8 0.00 0.00 0.00 87 1013.1
20260509104517 11 0.0 3.2 0.00 0.00 0.00 86 1013.1
20260509103036 11 0.0 1.6 0.00 0.00 0.00 86 1013.0
20260509101517 11 0.0 4.8 0.00 0.00 0.00 85 1013.0
20260509100016 11 0.0 3.2 0.00 0.00 0.00 84 1013.0
20260509094516 11 0.0 3.2 0.00 0.00 0.00 83 1013.0
20260509093016 11 0.0 1.6 0.00 0.00 0.00 83 1013.1
20260509091516 11 0.0 0.0 0.00 0.00 0.00 82 1013.1
20260509090016 11 0.0 0.0 0.00 0.00 0.00 81 1013.0
20260509084516 11 0.0 0.0 0.00 0.00 0.00 80 1013.1
20260509083016 11 0.0 0.0 0.00 0.00 0.00 79 1012.9
20260509081516 11 0.0 0.0 0.00 0.00 0.00 79 1012.9
20260509080016 11 0.0 0.0 0.00 0.00 0.00 78 1012.8
20260509074516 11 0.0 0.0 0.00 0.00 0.00 77 1013.0
20260509073016 12 0.0 0.0 0.00 0.00 0.00 75 1013.2
20260509071516 12 0.0 0.0 0.00 0.00 0.00 74 1013.4
20260509070016 12 0.0 0.0 0.00 0.00 0.00 73 1013.4
20260509064516 12 0.0 0.0 0.00 0.00 0.00 72 1013.7
20260509063016 12 0.0 1.6 0.00 0.00 0.00 71 1014.0
20260509061516 12 0.0 1.6 0.00 0.00 0.00 71 1014.1
20260509060016 12 0.0 3.2 0.00 0.00 0.00 70 1014.2
20260509054516 12 0.0 3.2 0.00 0.00 0.00 69 1014.3
20260509053016 12 0.0 3.2 0.00 0.00 0.00 69 1014.3
20260509051536 12 0.0 1.6 0.00 0.00 0.00 68 1014.0
20260509050016 12 0.0 0.0 0.00 0.00 0.00 67 1014.0
20260509044516 12 0.0 1.6 0.00 0.00 0.00 67 1013.8
20260509043016 12 0.0 6.4 0.00 0.00 0.00 66 1013.9
20260509041515 12 0.0 0.0 0.00 0.00 0.00 64 1014.0
20260509040016 12 0.0 0.0 0.00 0.00 0.00 63 1013.9
20260509034516 12 0.0 0.0 0.00 0.00 0.00 61 1014.3
20260509033016 12 0.0 0.0 0.00 0.00 0.00 60 1014.3
20260509031516 12 0.0 0.0 0.00 0.00 0.00 59 1014.3
20260509030036 13 0.0 3.2 0.00 0.00 0.00 58 1014.3
20260509024516 13 0.0 0.0 0.00 0.00 0.00 58 1014.3
20260509023016 13 0.0 1.6 0.00 0.00 0.00 57 1014.3
20260509021516 13 0.0 0.0 0.00 0.00 0.00 57 1014.2
20260509020016 14 0.0 1.6 0.00 0.00 0.00 55 1014.0
20260509014516 15 0.0 0.0 0.00 0.00 0.00 55 1014.0
20260509013016 15 0.0 0.0 0.00 0.00 0.00 52 1013.9
20260509011516 15 0.0 1.6 0.00 0.00 0.00 51 1013.7
20260509010036 16 0.0 0.0 0.00 0.00 0.00 51 1013.7
20260509004516 16 0.0 1.6 0.00 0.00 0.00 48 1013.7
20260509003016 17 0.0 0.0 0.00 0.00 0.00 46 1013.6
20260509001516 17 0.0 1.6 0.00 0.00 0.00 44 1013.5
20260509000016 18 0.0 1.6 0.00 0.00 0.00 43 1013.4
20260508234536 19 0.0 1.6 0.00 0.00 0.00 41 1013.1
20260508233016 20 0.0 6.4 0.00 0.00 0.00 39 1013.0
20260508231516 20 158 1.6 8.0 0.00 0.00 0.00 37 1012.9
20260508230016 21 0.0 3.2 0.00 0.00 0.00 36 1012.9
20260508224516 21 158 1.6 6.4 0.00 0.00 0.00 34 1012.9
20260508223016 22 293 1.6 4.8 0.00 0.00 0.00 33 1013.0
20260508221516 22 293 1.6 4.8 0.00 0.00 0.00 34 1013.2
20260508220016 21 135 1.6 8.0 0.00 0.00 0.00 36 1013.2
20260508214516 21 315 1.6 12.9 0.00 0.00 0.00 35 1013.3
20260508213036 21 293 1.6 6.4 0.00 0.00 0.00 34 1013.3
20260508211536 21 203 1.6 6.4 0.00 0.00 0.00 35 1013.3
20260508210036 21 158 1.6 4.8 0.00 0.00 0.00 35 1013.4
20260508204536 21 315 3.2 12.9 0.00 0.00 0.00 35 1013.5
20260508203015 21 315 1.6 6.4 0.00 0.00 0.00 36 1013.7
20260508201516 21 45 1.6 4.8 0.00 0.03 0.00 36 1013.7
20260508200015 21 225 3.2 6.4 0.00 0.05 0.00 36 1013.9
20260508194536 21 180 1.6 12.9 0.00 0.08 0.00 34 1014.1
20260508193015 21 315 3.2 11.3 0.00 0.08 0.00 37 1014.3
20260508191516 21 315 3.2 9.7 0.00 0.08 0.00 40 1014.7
20260508190015 20 338 1.6 6.4 0.00 0.08 0.00 35 1014.7
20260508184535 20 315 3.2 6.4 0.00 0.08 0.00 37 1014.9
20260508183015 20 270 3.2 9.7 0.00 0.08 0.00 37 1015.2
20260508181515 19 293 1.6 9.7 0.00 0.08 0.00 43 1015.3
20260508180015 19 293 1.6 9.7 0.00 0.08 0.00 37 1015.5
20260508174516 19 315 1.6 6.4 0.00 0.08 0.00 39 1015.7
20260508173035 19 113 3.2 12.9 0.00 0.08 0.00 39 1015.7
20260508171515 19 315 1.6 4.8 0.00 0.08 0.00 39 1016.0
20260508170015 19 293 1.6 9.7 0.00 0.08 0.00 39 1016.2
20260508164517 19 135 1.6 4.8 0.00 0.08 0.00 37 1016.4
20260508163017 19 45 1.6 6.4 0.00 0.08 0.00 37 1016.7
20260508161517 20 158 1.6 6.4 0.00 0.08 0.00 38 1016.9
20260508160017 19 338 1.6 6.4 0.00 0.08 0.00 39 1017.1
20260508154517 19 338 1.6 6.4 0.00 0.08 0.00 39 1017.3
20260508153017 18 45 1.6 6.4 0.00 0.08 0.00 40 1017.4
20260508151557 17 338 1.6 4.8 0.00 0.08 0.00 43 1017.5
20260508150017 16 338 1.6 6.4 0.00 0.10 0.00 43 1017.7
20260508144537 15 113 1.6 4.8 0.00 0.10 0.00 48 1017.6
20260508143017 14 315 1.6 6.4 0.00 0.10 0.00 54 1017.5
20260508141517 13 0 1.6 4.8 0.00 0.10 0.00 57 1017.6
20260508140017 13 0 1.6 4.8 0.00 0.10 0.00 61 1017.7